Year,Month,Day,Hour,Minute,Value (Times are PST for windgust in km/hr)
2017,09,28,00,13,1.60
2017,09,28,00,14,4.80
2017,09,28,00,15,4.80
2017,09,28,00,16,6.40
2017,09,28,00,17,6.40
2017,09,28,00,18,8.10
2017,09,28,00,19,9.60
2017,09,28,00,20,9.60
2017,09,28,00,21,12.90
2017,09,28,00,22,9.60
2017,09,28,00,23,9.60
2017,09,28,00,24,9.60
2017,09,28,00,25,9.60
2017,09,28,00,26,9.60
2017,09,28,00,27,12.90
2017,09,28,00,28,9.60
2017,09,28,00,29,9.60
2017,09,28,00,30,12.90
2017,09,28,00,31,12.90
2017,09,28,00,32,9.60
2017,09,28,00,33,12.90
2017,09,28,00,34,12.90
2017,09,28,00,35,12.90
2017,09,28,00,36,12.90
2017,09,28,00,37,12.90
2017,09,28,00,38,14.50
2017,09,28,00,39,14.50
2017,09,28,00,40,14.50
2017,09,28,00,41,14.50
2017,09,28,00,42,14.50
2017,09,28,00,43,14.50
2017,09,28,00,44,14.50
2017,09,28,00,45,12.90
2017,09,28,00,46,9.60
2017,09,28,00,47,12.90
2017,09,28,00,48,12.90
2017,09,28,00,49,9.60
2017,09,28,00,50,8.10
2017,09,28,00,51,9.60
2017,09,28,00,52,8.10
2017,09,28,00,53,8.10
2017,09,28,00,54,8.10
2017,09,28,00,55,8.10
2017,09,28,00,56,8.10
2017,09,28,00,57,12.90
2017,09,28,00,58,9.60
2017,09,28,00,59,8.10
2017,09,28,01,00,6.40
2017,09,28,01,01,8.10
2017,09,28,01,02,8.10
2017,09,28,01,03,8.10
2017,09,28,01,04,8.10
2017,09,28,01,05,8.10
2017,09,28,01,06,8.10
2017,09,28,01,07,8.10
2017,09,28,01,08,6.40
2017,09,28,01,09,8.10
2017,09,28,01,10,8.10
2017,09,28,01,11,8.10
2017,09,28,01,12,8.10
2017,09,28,01,13,9.60
2017,09,28,01,14,9.60
2017,09,28,01,15,6.40
2017,09,28,01,16,8.10
2017,09,28,01,17,8.10
2017,09,28,01,18,9.60
2017,09,28,01,19,12.90
2017,09,28,01,20,9.60
2017,09,28,01,21,8.10
2017,09,28,01,22,9.60
2017,09,28,01,23,9.60
2017,09,28,01,24,12.90
2017,09,28,01,25,9.60
2017,09,28,01,26,9.60
2017,09,28,01,27,14.50
2017,09,28,01,28,14.50
2017,09,28,01,29,12.90
2017,09,28,01,30,16.10
2017,09,28,01,31,12.90
2017,09,28,01,32,12.90
2017,09,28,01,33,16.10
2017,09,28,01,34,14.50
2017,09,28,01,35,14.50
2017,09,28,01,36,14.50
2017,09,28,01,37,12.90
2017,09,28,01,38,12.90
2017,09,28,01,39,12.90
2017,09,28,01,40,12.90
2017,09,28,01,41,12.90
2017,09,28,01,42,12.90
2017,09,28,01,43,12.90
2017,09,28,01,44,9.60
2017,09,28,01,45,12.90
2017,09,28,01,46,12.90
2017,09,28,01,47,12.90
2017,09,28,01,48,12.90
2017,09,28,01,49,12.90
2017,09,28,01,50,12.90
2017,09,28,01,51,12.90
2017,09,28,01,52,12.90
2017,09,28,01,53,12.90
2017,09,28,01,54,9.60
2017,09,28,01,55,14.50
2017,09,28,01,56,12.90
2017,09,28,01,57,9.60
2017,09,28,01,58,12.90
2017,09,28,01,59,14.50
2017,09,28,02,00,16.10
2017,09,28,02,01,14.50
2017,09,28,02,02,14.50
2017,09,28,02,03,14.50
2017,09,28,02,04,12.90
2017,09,28,02,05,12.90
2017,09,28,02,06,14.50
2017,09,28,02,07,14.50
2017,09,28,02,08,14.50
2017,09,28,02,09,14.50
2017,09,28,02,10,16.10
2017,09,28,02,11,16.10
2017,09,28,02,12,12.90
2017,09,28,02,13,12.90
2017,09,28,02,14,9.60
2017,09,28,02,15,9.60
2017,09,28,02,16,9.60
2017,09,28,02,17,9.60
2017,09,28,02,18,12.90
2017,09,28,02,19,12.90
2017,09,28,02,20,11.30
2017,09,28,02,21,12.90
2017,09,28,02,22,9.60
2017,09,28,02,23,9.60
2017,09,28,02,24,9.60
2017,09,28,02,25,9.60
2017,09,28,02,26,9.60
2017,09,28,02,27,12.90
2017,09,28,02,28,12.90
2017,09,28,02,29,9.60
2017,09,28,02,30,8.10
2017,09,28,02,31,6.40
2017,09,28,02,32,4.80
2017,09,28,02,33,6.40
2017,09,28,02,34,4.80
2017,09,28,02,35,8.10
2017,09,28,02,36,11.30
2017,09,28,02,37,11.30
2017,09,28,02,38,12.90
2017,09,28,02,39,12.90
2017,09,28,02,40,12.90
2017,09,28,02,41,12.90
2017,09,28,02,42,9.60
2017,09,28,02,43,9.60
2017,09,28,02,44,12.90
2017,09,28,02,45,12.90
2017,09,28,02,46,11.30
2017,09,28,02,47,12.90
2017,09,28,02,48,12.90
2017,09,28,02,49,12.90
2017,09,28,02,50,12.90
2017,09,28,02,51,12.90
2017,09,28,02,52,12.90
2017,09,28,02,53,12.90
2017,09,28,02,54,11.30
2017,09,28,02,55,12.90
2017,09,28,02,56,12.90
2017,09,28,02,57,12.90
2017,09,28,02,58,9.60
2017,09,28,02,59,11.30
2017,09,28,03,00,9.60
2017,09,28,03,01,11.30
2017,09,28,03,02,9.60
2017,09,28,03,03,11.30
2017,09,28,03,04,11.30
2017,09,28,03,05,11.30
2017,09,28,03,06,11.30
2017,09,28,03,07,12.90
2017,09,28,03,08,12.90
2017,09,28,03,09,14.50
2017,09,28,03,10,12.90
2017,09,28,03,11,14.50
2017,09,28,03,12,14.50
2017,09,28,03,13,12.90
2017,09,28,03,14,14.50
2017,09,28,03,15,14.50
2017,09,28,03,16,14.50
2017,09,28,03,17,14.50
2017,09,28,03,18,14.50
2017,09,28,03,19,12.90
2017,09,28,03,20,14.50
2017,09,28,03,21,12.90
2017,09,28,03,22,16.10
2017,09,28,03,23,12.90
2017,09,28,03,24,14.50
2017,09,28,03,25,9.60
2017,09,28,03,26,14.50
2017,09,28,03,27,14.50
2017,09,28,03,28,14.50
2017,09,28,03,29,14.50
2017,09,28,03,30,14.50
2017,09,28,03,31,14.50
2017,09,28,03,32,12.90
2017,09,28,03,33,12.90
2017,09,28,03,34,12.90
2017,09,28,03,35,12.90
2017,09,28,03,36,9.60
2017,09,28,03,37,12.90
2017,09,28,03,38,12.90
2017,09,28,03,39,14.50
2017,09,28,03,40,12.90
2017,09,28,03,41,16.10
2017,09,28,03,42,14.50
2017,09,28,03,43,14.50
2017,09,28,03,44,16.10
2017,09,28,03,45,16.10
2017,09,28,03,46,16.10
2017,09,28,03,47,16.10
2017,09,28,03,48,16.10
2017,09,28,03,49,16.10
2017,09,28,03,50,16.10
2017,09,28,03,51,16.10
2017,09,28,03,52,16.10
2017,09,28,03,53,16.10
2017,09,28,03,54,16.10
2017,09,28,03,55,14.50
2017,09,28,03,56,16.10
2017,09,28,03,57,14.50
2017,09,28,03,58,12.90
2017,09,28,03,59,9.60
2017,09,28,04,00,9.60
2017,09,28,04,01,9.60
2017,09,28,04,02,9.60
2017,09,28,04,03,9.60
2017,09,28,04,04,8.10
2017,09,28,04,05,9.60
2017,09,28,04,06,12.90
2017,09,28,04,07,9.60
2017,09,28,04,08,9.60
2017,09,28,04,09,9.60
2017,09,28,04,10,9.60
2017,09,28,04,11,8.10
2017,09,28,04,12,9.60
2017,09,28,04,13,12.90
2017,09,28,04,14,12.90
2017,09,28,04,15,12.90
2017,09,28,04,16,12.90
2017,09,28,04,17,14.50
2017,09,28,04,18,14.50
2017,09,28,04,19,12.90
2017,09,28,04,20,9.60
2017,09,28,04,21,8.10
2017,09,28,04,22,9.60
2017,09,28,04,23,9.60
2017,09,28,04,24,12.90
2017,09,28,04,25,12.90
2017,09,28,04,26,9.60
2017,09,28,04,27,9.60
2017,09,28,04,28,8.10
2017,09,28,04,29,6.40
2017,09,28,04,30,8.10
2017,09,28,04,31,12.90
2017,09,28,04,32,9.60
2017,09,28,04,33,9.60
2017,09,28,04,34,9.60
2017,09,28,04,35,9.60
2017,09,28,04,36,6.40
2017,09,28,04,37,8.10
2017,09,28,04,38,8.10
2017,09,28,04,39,12.90
2017,09,28,04,40,9.60
2017,09,28,04,41,6.40
2017,09,28,04,42,4.80
2017,09,28,04,43,4.80
2017,09,28,04,44,4.80
2017,09,28,04,45,8.10
2017,09,28,04,46,8.10
2017,09,28,04,47,6.40
2017,09,28,04,48,4.80
2017,09,28,04,49,6.40
2017,09,28,04,50,6.40
2017,09,28,04,51,9.60
2017,09,28,04,52,9.60
2017,09,28,04,53,12.90
2017,09,28,04,54,14.50
2017,09,28,04,55,12.90
2017,09,28,04,56,16.10
2017,09,28,04,57,14.50
2017,09,28,04,58,9.60
2017,09,28,04,59,12.90
2017,09,28,05,00,9.60
2017,09,28,05,01,8.10
2017,09,28,05,02,8.10
2017,09,28,05,03,12.90
2017,09,28,05,04,9.60
2017,09,28,05,05,8.10
2017,09,28,05,06,6.40
2017,09,28,05,07,8.10
2017,09,28,05,08,8.10
2017,09,28,05,09,9.60
2017,09,28,05,10,9.60
2017,09,28,05,11,8.10
2017,09,28,05,12,9.60
2017,09,28,05,13,9.60
2017,09,28,05,14,12.90
2017,09,28,05,15,11.30
2017,09,28,05,16,9.60
2017,09,28,05,17,9.60
2017,09,28,05,18,9.60
2017,09,28,05,19,9.60
2017,09,28,05,20,9.60
2017,09,28,05,21,9.60
2017,09,28,05,22,8.10
2017,09,28,05,23,11.30
2017,09,28,05,24,9.60
2017,09,28,05,25,9.60
2017,09,28,05,26,9.60
2017,09,28,05,27,8.10
2017,09,28,05,28,9.60
2017,09,28,05,29,9.60
2017,09,28,05,30,9.60
2017,09,28,05,31,8.10
2017,09,28,05,32,9.60
2017,09,28,05,33,11.30
2017,09,28,05,34,11.30
2017,09,28,05,35,12.90
2017,09,28,05,36,9.60
2017,09,28,05,37,12.90
2017,09,28,05,38,12.90
2017,09,28,05,39,12.90
2017,09,28,05,40,12.90
2017,09,28,05,41,12.90
2017,09,28,05,42,11.30
2017,09,28,05,43,12.90
2017,09,28,05,44,9.60
2017,09,28,05,45,9.60
2017,09,28,05,46,9.60
2017,09,28,05,47,9.60
2017,09,28,05,48,9.60
2017,09,28,05,49,11.30
2017,09,28,05,50,9.60
2017,09,28,05,51,9.60
2017,09,28,05,52,12.90
2017,09,28,05,53,12.90
2017,09,28,05,54,12.90
2017,09,28,05,55,12.90
2017,09,28,05,56,12.90
2017,09,28,05,57,9.60
2017,09,28,05,58,9.60
2017,09,28,05,59,9.60
2017,09,28,06,00,8.10
2017,09,28,06,01,9.60
2017,09,28,06,02,9.60
2017,09,28,06,03,9.60
2017,09,28,06,04,9.60
2017,09,28,06,05,9.60
2017,09,28,06,06,9.60
2017,09,28,06,07,9.60
2017,09,28,06,08,9.60
2017,09,28,06,09,9.60
2017,09,28,06,10,9.60
2017,09,28,06,11,8.10
2017,09,28,06,12,6.40
2017,09,28,06,13,9.60
2017,09,28,06,14,9.60
2017,09,28,06,15,9.60
2017,09,28,06,16,8.10
2017,09,28,06,17,9.60
2017,09,28,06,18,8.10
2017,09,28,06,19,9.60
2017,09,28,06,20,9.60
2017,09,28,06,21,6.40
2017,09,28,06,22,12.90
2017,09,28,06,23,12.90
2017,09,28,06,24,9.60
2017,09,28,06,25,8.10
2017,09,28,06,26,9.60
2017,09,28,06,27,12.90
2017,09,28,06,28,9.60
2017,09,28,06,29,14.50
2017,09,28,06,30,12.90
2017,09,28,06,31,9.60
2017,09,28,06,32,12.90
2017,09,28,06,33,6.40
2017,09,28,06,34,8.10
2017,09,28,06,35,6.40
2017,09,28,06,36,8.10
2017,09,28,06,37,6.40
2017,09,28,06,38,4.80
2017,09,28,06,39,3.20
2017,09,28,06,40,4.80
2017,09,28,06,41,6.40
2017,09,28,06,42,8.10
2017,09,28,06,43,8.10
2017,09,28,06,44,8.10
2017,09,28,06,45,8.10
2017,09,28,06,46,11.30
2017,09,28,06,47,11.30
2017,09,28,06,48,8.10
2017,09,28,06,49,11.30
2017,09,28,06,50,11.30
2017,09,28,06,51,11.30
2017,09,28,06,52,9.60
2017,09,28,06,53,9.60
2017,09,28,06,54,9.60
2017,09,28,06,55,9.60
2017,09,28,06,56,9.60
2017,09,28,06,57,11.30
2017,09,28,06,58,8.10
2017,09,28,06,59,11.30
2017,09,28,07,00,11.30
2017,09,28,07,01,9.60
2017,09,28,07,02,8.10
2017,09,28,07,03,8.10
2017,09,28,07,04,8.10
2017,09,28,07,05,6.40
2017,09,28,07,06,6.40
2017,09,28,07,07,6.40
2017,09,28,07,08,8.10
2017,09,28,07,09,8.10
2017,09,28,07,10,8.10
2017,09,28,07,11,8.10
2017,09,28,07,12,8.10
2017,09,28,07,13,4.80
2017,09,28,07,14,6.40
2017,09,28,07,15,6.40
2017,09,28,07,16,6.40
2017,09,28,07,17,4.80
2017,09,28,07,18,4.80
2017,09,28,07,19,6.40
2017,09,28,07,20,6.40
2017,09,28,07,21,6.40
2017,09,28,07,22,6.40
2017,09,28,07,23,8.10
2017,09,28,07,24,4.80
2017,09,28,07,25,6.40
2017,09,28,07,26,6.40
2017,09,28,07,27,8.10
2017,09,28,07,28,8.10
2017,09,28,07,29,8.10
2017,09,28,07,30,6.40
2017,09,28,07,31,6.40
2017,09,28,07,32,6.40
2017,09,28,07,33,6.40
2017,09,28,07,34,6.40
2017,09,28,07,35,9.60
2017,09,28,07,36,8.10
2017,09,28,07,37,4.80
2017,09,28,07,38,6.40
2017,09,28,07,39,6.40
2017,09,28,07,40,6.40
2017,09,28,07,41,6.40
2017,09,28,07,42,6.40
2017,09,28,07,43,6.40
2017,09,28,07,44,6.40
2017,09,28,07,45,8.10
2017,09,28,07,46,9.60
2017,09,28,07,47,11.30
2017,09,28,07,48,11.30
2017,09,28,07,49,9.60
2017,09,28,07,50,9.60
2017,09,28,07,51,8.10
2017,09,28,07,52,8.10
2017,09,28,07,53,6.40
2017,09,28,07,54,6.40
2017,09,28,07,55,6.40
2017,09,28,07,56,11.30
2017,09,28,07,57,8.10
2017,09,28,07,58,8.10
2017,09,28,07,59,8.10
2017,09,28,08,00,11.30
2017,09,28,08,01,11.30
2017,09,28,08,02,11.30
2017,09,28,08,03,11.30
2017,09,28,08,04,11.30
2017,09,28,08,05,11.30
2017,09,28,08,06,12.90
2017,09,28,08,07,11.30
2017,09,28,08,08,9.60
2017,09,28,08,09,9.60
2017,09,28,08,10,9.60
2017,09,28,08,11,11.30
2017,09,28,08,12,11.30
2017,09,28,08,13,11.30
2017,09,28,08,14,11.30
2017,09,28,08,15,11.30
2017,09,28,08,16,12.90
2017,09,28,08,17,11.30
2017,09,28,08,18,11.30
2017,09,28,08,19,11.30
2017,09,28,08,20,11.30
2017,09,28,08,21,12.90
2017,09,28,08,22,11.30
2017,09,28,08,23,12.90
2017,09,28,08,24,12.90
2017,09,28,08,25,12.90
2017,09,28,08,26,14.50
2017,09,28,08,27,14.50
2017,09,28,08,28,14.50
2017,09,28,08,29,14.50
2017,09,28,08,30,14.50
2017,09,28,08,31,14.50
2017,09,28,08,32,14.50
2017,09,28,08,33,12.90
2017,09,28,08,34,14.50
2017,09,28,08,35,12.90
2017,09,28,08,36,12.90
2017,09,28,08,37,14.50
2017,09,28,08,38,14.50
2017,09,28,08,39,16.10
2017,09,28,08,40,16.10
2017,09,28,08,41,16.10
2017,09,28,08,42,14.50
2017,09,28,08,43,16.10
2017,09,28,08,44,16.10
2017,09,28,08,45,12.90
2017,09,28,08,46,12.90
2017,09,28,08,47,12.90
2017,09,28,08,48,14.50
2017,09,28,08,49,14.50
2017,09,28,08,50,14.50
2017,09,28,08,51,12.90
2017,09,28,08,52,9.60
2017,09,28,08,53,12.90
2017,09,28,08,54,12.90
2017,09,28,08,55,12.90
2017,09,28,08,56,9.60
2017,09,28,08,57,12.90
2017,09,28,08,58,9.60
2017,09,28,08,59,8.10
2017,09,28,09,00,11.30
2017,09,28,09,01,11.30
2017,09,28,09,02,12.90
2017,09,28,09,03,8.10
2017,09,28,09,04,9.60
2017,09,28,09,05,19.30
2017,09,28,09,06,14.50
2017,09,28,09,07,11.30
2017,09,28,09,08,11.30
2017,09,28,09,09,12.90
2017,09,28,09,10,14.50
2017,09,28,09,11,19.30
2017,09,28,09,12,17.70
2017,09,28,09,13,16.10
2017,09,28,09,14,19.30
2017,09,28,09,15,20.90
2017,09,28,09,16,19.30
2017,09,28,09,17,16.10
2017,09,28,09,18,14.50
2017,09,28,09,19,19.30
2017,09,28,09,20,19.30
2017,09,28,09,21,19.30
2017,09,28,09,22,17.70
2017,09,28,09,23,19.30
2017,09,28,09,24,17.70
2017,09,28,09,25,19.30
2017,09,28,09,26,20.90
2017,09,28,09,27,22.50
2017,09,28,09,28,22.50
2017,09,28,09,29,17.70
2017,09,28,09,30,25.70
2017,09,28,09,31,22.50
2017,09,28,09,32,22.50
2017,09,28,09,33,24.20
2017,09,28,09,34,20.90
2017,09,28,09,35,19.30
2017,09,28,09,36,24.20
2017,09,28,09,37,19.30
2017,09,28,09,38,19.30
2017,09,28,09,39,19.30
2017,09,28,09,40,17.70
2017,09,28,09,41,20.90
2017,09,28,09,42,19.30
2017,09,28,09,43,16.10
2017,09,28,09,44,20.90
2017,09,28,09,45,20.90
2017,09,28,09,46,17.70
2017,09,28,09,47,20.90
2017,09,28,09,48,17.70
2017,09,28,09,49,17.70
2017,09,28,09,50,19.30
2017,09,28,09,51,20.90
2017,09,28,09,52,20.90
2017,09,28,09,53,25.70
2017,09,28,09,54,24.20
2017,09,28,09,55,22.50
2017,09,28,09,56,24.20
2017,09,28,09,57,27.40
2017,09,28,09,58,27.40
2017,09,28,09,59,27.40
2017,09,28,10,00,25.70
2017,09,28,10,01,25.70
2017,09,28,10,02,22.50
2017,09,28,10,03,20.90
2017,09,28,10,04,22.50
2017,09,28,10,05,20.90
2017,09,28,10,06,20.90
2017,09,28,10,07,22.50
2017,09,28,10,08,14.50
2017,09,28,10,09,19.30
2017,09,28,10,10,16.10
2017,09,28,10,11,17.70
2017,09,28,10,12,14.50
2017,09,28,10,13,14.50
2017,09,28,10,14,12.90
2017,09,28,10,15,14.50
2017,09,28,10,16,16.10
2017,09,28,10,17,16.10
2017,09,28,10,18,14.50
2017,09,28,10,19,16.10
2017,09,28,10,20,16.10
2017,09,28,10,21,17.70
2017,09,28,10,22,17.70
2017,09,28,10,23,19.30
2017,09,28,10,24,17.70
2017,09,28,10,25,22.50
2017,09,28,10,26,16.10
2017,09,28,10,27,16.10
2017,09,28,10,28,19.30
2017,09,28,10,29,16.10
2017,09,28,10,30,19.30
2017,09,28,10,31,20.90
2017,09,28,10,32,22.50
2017,09,28,10,33,20.90
2017,09,28,10,34,20.90
2017,09,28,10,35,24.20
2017,09,28,10,36,22.50
2017,09,28,10,37,17.70
2017,09,28,10,38,19.30
2017,09,28,10,39,20.90
2017,09,28,10,40,19.30
2017,09,28,10,41,20.90
2017,09,28,10,42,19.30
2017,09,28,10,43,19.30
2017,09,28,10,44,20.90
2017,09,28,10,45,17.70
2017,09,28,10,46,19.30
2017,09,28,10,47,14.50
2017,09,28,10,48,19.30
2017,09,28,10,49,20.90
2017,09,28,10,50,17.70
2017,09,28,10,51,22.50
2017,09,28,10,52,19.30
2017,09,28,10,53,20.90
2017,09,28,10,54,16.10
2017,09,28,10,55,17.70
2017,09,28,10,56,20.90
2017,09,28,10,57,19.30
2017,09,28,10,58,19.30
2017,09,28,10,59,20.90
2017,09,28,11,00,19.30
2017,09,28,11,01,17.70
2017,09,28,11,02,17.70
2017,09,28,11,03,20.90
2017,09,28,11,04,19.30
2017,09,28,11,05,14.50
2017,09,28,11,06,14.50
2017,09,28,11,07,16.10
2017,09,28,11,08,16.10
2017,09,28,11,09,16.10
2017,09,28,11,10,14.50
2017,09,28,11,11,19.30
2017,09,28,11,12,19.30
2017,09,28,11,13,16.10
2017,09,28,11,14,12.90
2017,09,28,11,15,12.90
2017,09,28,11,16,16.10
2017,09,28,11,17,19.30
2017,09,28,11,18,16.10
2017,09,28,11,19,16.10
2017,09,28,11,20,16.10
2017,09,28,11,21,16.10
2017,09,28,11,22,16.10
2017,09,28,11,23,12.90
2017,09,28,11,24,12.90
2017,09,28,11,25,16.10
2017,09,28,11,26,17.70
2017,09,28,11,27,19.30
2017,09,28,11,28,17.70
2017,09,28,11,29,17.70
2017,09,28,11,30,20.90
2017,09,28,11,31,19.30
2017,09,28,11,32,20.90
2017,09,28,11,33,20.90
2017,09,28,11,34,22.50
2017,09,28,11,35,22.50
2017,09,28,11,36,22.50
2017,09,28,11,37,24.20
2017,09,28,11,38,22.50
2017,09,28,11,39,22.50
2017,09,28,11,40,22.50
2017,09,28,11,41,24.20
2017,09,28,11,42,25.70
2017,09,28,11,43,24.20
2017,09,28,11,44,24.20
2017,09,28,11,45,19.30
2017,09,28,11,46,19.30
2017,09,28,11,47,19.30
2017,09,28,11,48,19.30
2017,09,28,11,49,17.70
2017,09,28,11,50,17.70
2017,09,28,11,51,19.30
2017,09,28,11,52,19.30
2017,09,28,11,53,19.30
2017,09,28,11,54,22.50
2017,09,28,11,55,20.90
2017,09,28,11,56,25.70
2017,09,28,11,57,22.50
2017,09,28,11,58,19.30
2017,09,28,11,59,20.90
2017,09,28,12,00,22.50
2017,09,28,12,01,20.90
2017,09,28,12,02,22.50
2017,09,28,12,03,29.00
2017,09,28,12,04,20.90
2017,09,28,12,05,24.20
2017,09,28,12,06,19.30
2017,09,28,12,07,20.90
2017,09,28,12,08,22.50
2017,09,28,12,09,20.90
2017,09,28,12,10,20.90
2017,09,28,12,11,20.90
2017,09,28,12,12,20.90
2017,09,28,12,13,20.90
2017,09,28,12,14,19.30
2017,09,28,12,15,22.50
2017,09,28,12,16,22.50
2017,09,28,12,17,19.30
2017,09,28,12,18,16.10
2017,09,28,12,19,20.90
2017,09,28,12,20,20.90
2017,09,28,12,21,19.30
2017,09,28,12,22,19.30
2017,09,28,12,23,19.30
2017,09,28,12,24,19.30
2017,09,28,12,25,17.70
2017,09,28,12,26,20.90
2017,09,28,12,27,20.90
2017,09,28,12,28,17.70
2017,09,28,12,29,20.90
2017,09,28,12,30,24.20
2017,09,28,12,31,20.90
2017,09,28,12,32,17.70
2017,09,28,12,33,14.50
2017,09,28,12,34,17.70
2017,09,28,12,35,24.20
2017,09,28,12,36,19.30
2017,09,28,12,37,17.70
2017,09,28,12,38,20.90
2017,09,28,12,39,17.70
2017,09,28,12,40,20.90
2017,09,28,12,41,20.90
2017,09,28,12,42,20.90
2017,09,28,12,43,19.30
2017,09,28,12,44,19.30
2017,09,28,12,45,19.30
2017,09,28,12,46,20.90
2017,09,28,12,47,16.10
2017,09,28,12,48,17.70
2017,09,28,12,49,16.10
2017,09,28,12,50,20.90
2017,09,28,12,51,19.30
2017,09,28,12,52,20.90
2017,09,28,12,53,19.30
2017,09,28,12,54,19.30
2017,09,28,12,55,17.70
2017,09,28,12,56,19.30
2017,09,28,12,57,17.70
2017,09,28,12,58,17.70
2017,09,28,12,59,17.70
2017,09,28,13,00,17.70
2017,09,28,13,01,22.50
2017,09,28,13,02,17.70
2017,09,28,13,03,17.70
2017,09,28,13,04,17.70
2017,09,28,13,05,19.30
2017,09,28,13,06,19.30
2017,09,28,13,07,17.70
2017,09,28,13,08,19.30
2017,09,28,13,09,19.30
2017,09,28,13,10,19.30
2017,09,28,13,11,19.30
2017,09,28,13,12,24.20
2017,09,28,13,13,20.90
2017,09,28,13,14,22.50
2017,09,28,13,15,20.90
2017,09,28,13,16,20.90
2017,09,28,13,17,20.90
2017,09,28,13,18,22.50
2017,09,28,13,19,17.70
2017,09,28,13,20,19.30
2017,09,28,13,21,22.50
2017,09,28,13,22,20.90
2017,09,28,13,23,22.50
2017,09,28,13,24,25.70
2017,09,28,13,25,25.70
2017,09,28,13,26,22.50
2017,09,28,13,27,22.50
2017,09,28,13,28,16.10
2017,09,28,13,29,17.70
2017,09,28,13,30,20.90
2017,09,28,13,31,19.30
2017,09,28,13,32,20.90
2017,09,28,13,33,19.30
2017,09,28,13,34,17.70
2017,09,28,13,35,16.10
2017,09,28,13,36,16.10
2017,09,28,13,37,19.30
2017,09,28,13,38,17.70
2017,09,28,13,39,17.70
2017,09,28,13,40,17.70
2017,09,28,13,41,19.30
2017,09,28,13,42,19.30
2017,09,28,13,43,19.30
2017,09,28,13,44,20.90
2017,09,28,13,45,20.90
2017,09,28,13,46,19.30
2017,09,28,13,47,22.50
2017,09,28,13,48,22.50
2017,09,28,13,49,20.90
2017,09,28,13,50,20.90
2017,09,28,13,51,20.90
2017,09,28,13,52,19.30
2017,09,28,13,53,19.30
2017,09,28,13,54,20.90
2017,09,28,13,55,19.30
2017,09,28,13,56,24.20
2017,09,28,13,57,16.10
2017,09,28,13,58,19.30
2017,09,28,13,59,17.70
2017,09,28,14,00,16.10
2017,09,28,14,01,19.30
2017,09,28,14,02,19.30
2017,09,28,14,03,14.50
2017,09,28,14,04,16.10
2017,09,28,14,05,17.70
2017,09,28,14,06,20.90
2017,09,28,14,07,22.50
2017,09,28,14,08,20.90
2017,09,28,14,09,19.30
2017,09,28,14,10,14.50
2017,09,28,14,11,19.30
2017,09,28,14,12,17.70
2017,09,28,14,13,14.50
2017,09,28,14,14,17.70
2017,09,28,14,15,16.10
2017,09,28,14,16,17.70
2017,09,28,14,17,19.30
2017,09,28,14,18,14.50
2017,09,28,14,19,17.70
2017,09,28,14,20,17.70
2017,09,28,14,21,19.30
2017,09,28,14,22,20.90
2017,09,28,14,23,17.70
2017,09,28,14,24,19.30
2017,09,28,14,25,19.30
2017,09,28,14,26,22.50
2017,09,28,14,27,20.90
2017,09,28,14,28,17.70
2017,09,28,14,29,20.90
2017,09,28,14,30,20.90
2017,09,28,14,31,19.30
2017,09,28,14,32,19.30
2017,09,28,14,33,19.30
2017,09,28,14,34,19.30
2017,09,28,14,35,19.30
2017,09,28,14,36,17.70
2017,09,28,14,37,17.70
2017,09,28,14,38,20.90
2017,09,28,14,39,17.70
2017,09,28,14,40,20.90
2017,09,28,14,41,17.70
2017,09,28,14,42,19.30
2017,09,28,14,43,20.90
2017,09,28,14,44,19.30
2017,09,28,14,45,19.30
2017,09,28,14,46,19.30
2017,09,28,14,47,20.90
2017,09,28,14,48,16.10
2017,09,28,14,49,14.50
2017,09,28,14,50,12.90
2017,09,28,14,51,8.10
2017,09,28,14,52,11.30
2017,09,28,14,53,12.90
2017,09,28,14,54,12.90
2017,09,28,14,55,17.70
2017,09,28,14,56,14.50
2017,09,28,14,57,16.10
2017,09,28,14,58,17.70
2017,09,28,14,59,19.30
2017,09,28,15,00,17.70
2017,09,28,15,01,19.30
2017,09,28,15,02,14.50
2017,09,28,15,03,14.50
2017,09,28,15,04,17.70
2017,09,28,15,05,17.70
2017,09,28,15,06,16.10
2017,09,28,15,07,14.50
2017,09,28,15,08,19.30
2017,09,28,15,09,17.70
2017,09,28,15,10,17.70
2017,09,28,15,11,19.30
2017,09,28,15,12,20.90
2017,09,28,15,13,20.90
2017,09,28,15,14,19.30
2017,09,28,15,15,20.90
2017,09,28,15,16,22.50
2017,09,28,15,17,20.90
2017,09,28,15,18,17.70
2017,09,28,15,19,19.30
2017,09,28,15,20,19.30
2017,09,28,15,21,19.30
2017,09,28,15,22,19.30
2017,09,28,15,23,19.30
2017,09,28,15,24,17.70
2017,09,28,15,25,17.70
2017,09,28,15,26,17.70
2017,09,28,15,27,17.70
2017,09,28,15,28,17.70
2017,09,28,15,29,19.30
2017,09,28,15,30,19.30
2017,09,28,15,31,20.90
2017,09,28,15,32,19.30
2017,09,28,15,33,17.70
2017,09,28,15,34,17.70
2017,09,28,15,35,17.70
2017,09,28,15,36,16.10
2017,09,28,15,37,16.10
2017,09,28,15,38,19.30
2017,09,28,15,39,17.70
2017,09,28,15,40,17.70
2017,09,28,15,41,19.30
2017,09,28,15,42,17.70
2017,09,28,15,43,17.70
2017,09,28,15,44,17.70
2017,09,28,15,45,17.70
2017,09,28,15,46,16.10
2017,09,28,15,47,17.70
2017,09,28,15,48,16.10
2017,09,28,15,49,20.90
2017,09,28,15,50,20.90
2017,09,28,15,51,17.70
2017,09,28,15,52,16.10
2017,09,28,15,53,16.10
2017,09,28,15,54,16.10
2017,09,28,15,55,17.70
2017,09,28,15,56,17.70
2017,09,28,15,57,14.50
2017,09,28,15,58,14.50
2017,09,28,15,59,14.50
2017,09,28,16,00,16.10
2017,09,28,16,01,16.10
2017,09,28,16,02,16.10
2017,09,28,16,03,14.50
2017,09,28,16,04,14.50
2017,09,28,16,05,12.90
2017,09,28,16,06,14.50
2017,09,28,16,07,16.10
2017,09,28,16,08,14.50
2017,09,28,16,09,14.50
2017,09,28,16,10,16.10
2017,09,28,16,11,16.10
2017,09,28,16,12,16.10
2017,09,28,16,13,17.70
2017,09,28,16,14,16.10
2017,09,28,16,15,20.90
2017,09,28,16,16,16.10
2017,09,28,16,17,16.10
2017,09,28,16,18,16.10
2017,09,28,16,19,14.50
2017,09,28,16,20,19.30
2017,09,28,16,21,16.10
2017,09,28,16,22,14.50
2017,09,28,16,23,16.10
2017,09,28,16,24,14.50
2017,09,28,16,25,9.60
2017,09,28,16,26,9.60
2017,09,28,16,27,8.10
2017,09,28,16,28,12.90
2017,09,28,16,29,14.50
2017,09,28,16,30,9.60
2017,09,28,16,31,6.40
2017,09,28,16,32,11.30
2017,09,28,16,33,11.30
2017,09,28,16,34,8.10
2017,09,28,16,35,8.10
2017,09,28,16,36,9.60
2017,09,28,16,37,9.60
2017,09,28,16,38,6.40
2017,09,28,16,39,9.60
2017,09,28,16,40,9.60
2017,09,28,16,41,6.40
2017,09,28,16,42,6.40
2017,09,28,16,43,6.40
2017,09,28,16,44,4.80
2017,09,28,16,45,6.40
2017,09,28,16,46,4.80
2017,09,28,16,47,4.80
2017,09,28,16,48,4.80
2017,09,28,16,49,4.80
2017,09,28,16,50,3.20
2017,09,28,16,51,3.20
2017,09,28,16,52,3.20
2017,09,28,16,53,3.20
2017,09,28,16,54,3.20
2017,09,28,16,55,1.60
2017,09,28,16,56,1.60
2017,09,28,16,57,3.20
2017,09,28,16,58,3.20
2017,09,28,16,59,3.20
2017,09,28,17,00,1.60
2017,09,28,17,03,1.60
2017,09,28,17,04,3.20
2017,09,28,17,05,3.20
2017,09,28,17,06,3.20
2017,09,28,17,07,3.20
2017,09,28,17,08,4.80
2017,09,28,17,09,6.40
2017,09,28,17,10,4.80
2017,09,28,17,11,3.20
2017,09,28,17,12,4.80
2017,09,28,17,13,3.20
2017,09,28,17,14,1.60
2017,09,28,17,18,1.60
2017,09,28,17,19,1.60
2017,09,28,17,21,1.60
2017,09,28,18,20,4.80
2017,09,28,18,21,8.10
2017,09,28,18,22,8.10
2017,09,28,18,23,6.40
2017,09,28,18,24,3.20
2017,09,28,18,26,1.60
2017,09,28,18,27,1.60
2017,09,28,18,28,3.20
2017,09,28,18,29,1.60
2017,09,28,18,30,4.80
2017,09,28,18,31,6.40
2017,09,28,18,32,9.60
2017,09,28,18,33,9.60
2017,09,28,18,34,9.60
2017,09,28,18,35,8.10
2017,09,28,18,36,8.10
2017,09,28,18,37,17.70
2017,09,28,18,38,12.90
2017,09,28,18,39,9.60
2017,09,28,18,40,14.50
2017,09,28,18,41,12.90
2017,09,28,18,42,9.60
2017,09,28,18,43,9.60
2017,09,28,18,44,8.10
2017,09,28,18,45,9.60
2017,09,28,18,46,8.10
2017,09,28,18,47,9.60
2017,09,28,18,48,12.90
2017,09,28,18,49,9.60
2017,09,28,18,50,6.40
2017,09,28,18,51,6.40
2017,09,28,18,52,8.10